FW3012 Weather Reports


Display with metric or nautical units.
time (UTC)temp
F
wind
direction
speed
MPH
gust
MPH
rain 1hr
in
rain 24hr
in
rain mn
in
humidity
%
barometer
mb
20260504033102 46 248 1.0 3.0 0.00 0.00 0.00 55 998.3
20260504030041 42 248 1.0 2.0 0.00 0.00 0.00 58 998.4
20260504023041 41 248 1.0 4.0 0.00 0.00 0.00 58 998.4
20260504020041 39 0.0 3.0 0.00 0.00 0.00 60 998.2
20260504013041 41 248 1.0 3.0 0.00 0.00 0.00 57 998.2
20260504010414 40 0.0 2.0 0.00 0.00 0.00 57 998.4
20260504003041 40 0.0 3.0 0.00 0.00 0.00 59 998.5
20260504000201 41 0.0 2.0 0.00 0.00 0.00 57 998.4
20260503233041 42 0.0 3.0 0.00 0.00 0.00 55 998.4
20260503230041 43 0.0 3.0 0.00 0.00 0.00 53 998.5
20260503223041 42 0.0 2.0 0.00 0.00 0.00 52 998.4
20260503220041 42 0.0 2.0 0.00 0.00 0.00 52 998.6
20260503213041 44 0.0 2.0 0.00 0.00 0.00 50 998.8
20260503210141 45 0.0 3.0 0.00 0.00 0.00 50 998.9
20260503203042 45 338 1.0 3.0 0.00 0.00 0.00 50 999.0
20260503200043 44 0.0 1.0 0.00 0.00 0.00 53 999.1
20260503193042 43 0.0 2.0 0.00 0.00 0.00 57 999.2
20260503190413 43 0.0 0.0 0.00 0.00 0.00 57 999.3
20260503183041 44 0.0 1.0 0.00 0.00 0.00 57 999.4
20260503180040 44 0.0 1.0 0.00 0.00 0.00 52 999.4
20260503173041 47 0.0 1.0 0.00 0.00 0.00 49 999.3
20260503060202 51 338 3.0 6.0 0.00 0.00 0.00 50 1002.5
20260503053042 49 0 2.0 5.0 0.00 0.00 0.00 55 1002.5
20260503050040 47 0 1.0 4.0 0.00 0.00 0.00 59 1002.5
20260503043042 44 338 2.0 4.0 0.00 0.00 0.00 67 1002.5
20260503040455 43 0 3.0 5.0 0.00 0.00 0.00 70 1002.5